SCP
0 0 0 0 0 0 0 0 0 0 0 0 0 0 0 0 0 0 0 0 0 0 0 0 0 0 0 0 0 0 0 0 0 0 0 0 0 0 0 0 0 0 0 0
0 0 0 0 0 0 0 0 0 0 0 0 0 0 0 0 0 0 0 0 0 0 0 0 0 0 0 0 0 0 0 0 0 0 0 0 0 0 0 0 0 0 0 0
0 0 0 0 0 0 0 0 0 0 0 0 0 0 0 0 0 0 0 0 0 0 0 0 0 0 0 0 0 0 0 0 0 0 0 0 0 0 0 0 0 0 0 0
0 0 0 0 0 0 0 0 0 0 0 0 0 0 0 0 0 0 0 0 0 0 0 0 0 0 0 0 0 0 0 0 0 0 0 0 0 0 0 0 0 0 0 0
0 0 0 0 0 0 0 0 0 0 0 0 0 0 0 0 0 0 0 0 0 0 0 0 0 0 0 0 0 0 0 0 0 0 0 0 0 0 0 0 0 0 0 0
0 0 0 0 0 0 0 0 0 0 0 0 0 0 0 -0 0 0 0 0 0 0 0 0 0 0 0 0 0 0 0 0 0 0 0 0 0 0 0 0 0 0 0 0
0 0 0 0 0 0 0 0 0 0 0 0 0 0 0 0 0 0 0 0 0 0 0 0 0 0 0 0 0 0 0 0 0 0 0 0 0 0 0 0 0 0 0 0
0 0 0 0 0 0 0 0 0 0 0 0 0 0 0 0 0 0 0 0 0 0 0 0 0 0 0 0 0 0 0 0 0 0 0 0 0 0 0 0 0 0 0 0
0 0 0 0 0 0 0 0 0 0 0 0 0 0 0 0 0 0 0 0 0 0 0 0 0 0 0 0 0 0 0 0 0 0 0 0 0 0 0 0 0 0 0 0
0 0 0 0 0 0 0 0 0 0 0 0 0 0 0 0 0 0 0 0 0 0 0 0 0 0 0 0 0 0 0 0 0 0 0 0 0 0 0 0 0 0 0 0
0 0 0 0 0 0 0 0 0 0 0 0 0 0 0 0 0 0 0 0 0 0 0 0 0 0 0 0 0 0 0 0 0 0 0 0 0 0 0 0 0 0 0 0
0 0 0 0 0 0 0 0 0 0 0 0 0 0 0 0 0 0 0 0 0 0 0 0 0 0 0 0 0 0 0 0 0 0 0 0 0 0 0 0 0 0 0 0
0 0 0 0 0 0 0 0 0 0 0 0 0 0 0 0 0 0 0 0 0 0 0 0 0 0 0 0 0 0 0 0 0 0 0 0 0 0 0 0 0 0 0 0
0 0 0 0 0 0 0 0 0 0 0 0 0 0 0 0 0 0 0 0 0 0 0 0 0 0 0 0 0 0 0 0 0 0 0 0 0 0 0 0 0 0 0 0
0 0 0 0 0 0 0 0 0 0 0 0 0 0 0 0 0 0 0 0 0 0 0 0 0 0 0 0 0 0 0 0 0 0 0 0 0 0 0 0 0 0 0 0
0 0 0 0 0 0 0 0 0 0 0 0 0 0 0 0 0 0 0 0 0 0 0 0 0 0 0 0 0 0 0 0 0 0 0 0 0 0 0 0 0 0 0 0
-0 -0 0 0 0 0 0 0 0 0 0 0 0 0 0 0 0 0 0 0 0 0 0 0 0 0 0 0 0 0 0 0 0 0 0 0 0 0 0 0 0 0 0 0
-0 -0 0 0 0 0 0 0 0 0 0 0 0 0 0 0 0 0 0 0 0 0 0 0 0 0 0 0 0 0 0 0 0 0 0 0 0 0 0 0 0 0 0 0
-0 0 0 0 0 0 0 0 0 0 0 0 0 0 0 0 0 0 0 0 0 0 0 0 0 0 0 0 0 0 0 0 0 0 0 0 0 0 0 0 0 0 0 0
0 0 0 0 0 0 0 0 0 0 0 0 0 0 0 0 0 0 0 0 0 0 0 0 0 0 0 0 0 0 0 0 0 -0 -0 0 0 0 0 0 0 0 0 0
0 0 0 0 0 0 0 0 0 0 0 0 0 0 0 0 0 0 0 0 0 0 0 0 0 0 0 0 0 0 0 0 0 -0 -0 -0 0 0 0 0 0 0 0 0
0 0 0 0 0 0 0 0 0 0 0 0 0 0 0 0 0 0 0 0 0 0 0 0 0 0 0 0 0 0 0 0 0 0 -0 -0 0 0 0 0 0 0 0 0
0 0 0 0 0 0 0 0 0 0 0 0 0 0 0 0 0 0 0 0 0 0 0 0 0 0 0 0 0 0 0 0 0 0 0 0 0 0 0 0 0 0 0 0
0 -0 -0 0 0 0 0 0 0 0 0 0 0 0 0 0 0 0 0 0 0 0 0 0 0 0 0 0 0 0 0 0 0 0 0 0 0 0 0 0 0 0 0 0
0 -0 -0 0 0 0 0 0 0 0 0 0 0 0 0 0 0 0 0 0 0 0 0 0 0 0 0 0 0 0 0 0 0 0 0 0 0 0 0 0 0 0 0 0
0 0 0 0 0 0 0 -0 -0 0 0 0 0 0 0 0 0 0 0 0 0 0 0 0 0 0 0 0 0 0 0 0 0 0 0 0 0 0 0 0 0 0 0 0
Wind_Speed
1 2 4 7 8 5 3 4 6 6 3 3 8 10 9 7 5 6 6 6 6 6 5 4 4 4 4 3 3 3 3 2 3 2 2 2 2 1 1 1 1 1 1 2
2 5 8 5 4 4 4 5 6 5 2 3 6 10 9 8 8 8 8 8 7 5 3 3 3 3 4 4 4 3 3 3 3 3 2 2 2 1 1 1 0 1 1 2
7 6 4 4 3 5 6 6 6 5 3 3 3 8 6 6 5 5 6 6 6 7 6 5 4 4 4 4 5 4 4 3 3 3 2 1 1 0 0 1 1 1 2 2
5 4 2 4 5 5 7 5 5 3 1 4 2 6 7 5 4 5 5 5 6 6 5 5 4 4 5 5 5 4 4 3 3 3 3 4 3 2 2 2 2 1 1 1
5 3 3 6 6 6 5 2 3 3 3 3 3 5 9 3 6 8 7 6 6 6 5 5 5 5 4 4 4 4 3 3 3 3 4 4 3 2 1 1 1 1 1 1
4 3 3 4 2 3 2 2 2 2 2 5 7 6 9 6 8 7 7 6 6 5 4 4 3 3 2 2 2 3 3 2 3 3 4 4 4 3 3 2 2 1 1 1
4 4 2 1 1 1 2 3 2 3 2 8 3 6 10 6 6 7 7 7 5 4 4 4 3 2 2 2 2 3 3 2 3 3 3 4 5 5 5 4 3 3 1 1
3 6 4 3 4 4 4 6 6 5 5 5 2 8 8 4 3 2 3 4 3 4 4 4 4 4 3 3 2 3 3 2 3 3 3 3 4 3 3 4 3 3 2 2
4 6 2 2 2 5 4 4 4 2 1 3 6 6 7 2 1 0 1 2 3 4 4 4 4 3 3 2 2 3 3 2 3 3 3 3 3 3 3 3 3 2 2 2
3 4 3 2 1 1 3 5 3 3 3 5 6 6 6 5 5 3 3 3 4 4 4 3 3 3 2 2 1 1 2 3 3 2 2 2 2 3 3 3 3 2 2 2
1 3 3 1 5 6 3 3 4 3 4 4 5 8 5 6 6 6 6 5 5 4 4 4 3 2 1 1 0 1 1 1 1 2 2 2 2 2 3 3 3 2 2 2
1 2 4 6 4 3 5 6 6 5 5 4 4 9 3 3 4 5 5 4 3 3 3 3 3 2 1 1 0 0 0 1 1 2 2 2 2 2 2 2 2 2 2 1
2 2 2 4 2 1 3 4 4 3 2 4 5 9 3 2 1 2 3 3 3 3 2 2 2 2 2 1 1 1 0 1 1 2 2 2 2 2 2 2 2 2 2 1
2 4 6 8 6 4 4 5 5 5 5 6 10 11 7 4 3 3 3 3 3 4 4 3 2 2 2 2 1 1 0 1 1 2 2 2 1 2 2 1 1 1 2 2
3 4 5 7 7 4 7 8 8 10 10 10 11 12 12 6 6 5 4 3 3 3 4 4 3 3 2 2 1 1 1 1 1 2 1 1 1 1 1 1 1 1 1 1
3 3 2 6 6 6 8 9 10 10 9 11 11 14 9 4 3 3 4 5 5 4 4 4 4 3 3 3 2 2 1 1 1 2 1 1 1 1 1 1 1 1 1 1
4 4 2 5 4 3 8 9 9 7 7 8 12 13 4 3 5 6 6 6 6 5 5 4 4 4 4 3 3 3 2 1 2 2 1 1 1 1 1 1 1 1 1 1
5 4 3 2 0 7 8 3 5 7 8 8 8 7 5 5 4 4 5 6 5 5 5 4 4 3 3 2 2 2 2 2 2 2 1 1 1 1 0 1 0 1 1 1
5 5 3 2 3 7 7 3 3 5 7 6 9 7 3 1 2 3 3 4 5 5 4 4 3 3 2 3 3 2 1 1 2 2 2 2 2 1 1 0 0 1 1 1
1 3 3 3 3 6 6 4 1 2 6 4 4 5 2 2 1 5 3 2 2 2 2 2 2 2 2 2 2 2 1 1 2 3 2 2 2 2 1 1 1 1 1 1
0 1 4 4 5 8 6 3 2 2 7 5 3 4 3 4 5 3 1 1 1 1 1 2 2 2 2 2 2 2 2 2 2 2 2 1 1 2 1 1 1 1 1 1
5 4 4 3 4 8 2 2 3 6 5 4 3 3 3 3 2 2 2 1 1 1 1 2 2 1 0 1 2 2 2 2 1 1 2 1 1 1 1 1 1 1 0 0
6 7 5 8 8 5 4 5 5 4 5 5 4 3 2 2 2 2 2 2 1 1 1 2 2 1 0 0 2 2 2 1 1 1 2 1 1 0 1 1 1 0 0 1
4 2 3 5 8 8 7 5 5 4 6 6 4 3 3 3 3 2 2 2 1 1 1 1 2 2 1 0 0 1 1 1 1 1 1 1 1 1 0 0 1 1 1 1
6 3 3 6 8 7 5 5 6 6 5 4 4 3 4 4 3 3 2 2 2 1 1 2 2 2 1 0 0 1 1 1 1 1 1 1 1 1 0 0 1 2 2 3
4 6 6 8 7 6 7 5 5 5 5 5 4 2 2 3 3 3 2 2 2 2 1 1 1 1 1 1 1 1 1 1 2 1 1 1 1 1 1 0 1 2 2 3
Wind_Direction
120 105 207 216 210 218 213 216 244 252 251 233 243 254 258 252 234 230 226 218 213 214 214 189 177 168 157 155 158 165 162 174 162 162 166 172 194 199 209 218 213 197 196 179
72 236 231 219 221 237 239 248 257 274 270 243 260 267 259 244 229 223 220 216 211 206 199 191 178 171 173 174 176 177 177 181 179 183 183 183 184 197 207 210 220 197 183 186
200 234 223 205 223 234 244 231 240 254 309 308 304 291 258 253 237 231 224 213 199 190 192 194 186 189 185 183 187 189 190 186 186 176 155 130 93 60 237 231 231 230 203 198
235 246 218 212 226 208 247 231 232 244 253 270 190 277 270 244 245 232 225 214 207 202 193 190 187 192 197 196 190 191 192 188 187 172 165 166 174 199 220 218 222 233 213 197
245 224 212 226 230 201 231 229 221 235 215 275 230 235 274 242 240 237 226 217 210 201 190 191 194 197 199 189 184 190 189 189 185 178 178 179 189 203 197 195 201 222 221 194
250 260 223 225 238 196 169 56 28 40 96 257 224 207 267 224 220 226 221 215 206 196 187 185 187 177 177 174 176 175 176 192 192 187 185 186 191 188 183 197 202 214 215 203
288 273 262 154 88 27 105 101 9 324 281 248 218 213 249 239 226 214 212 210 201 189 179 174 174 173 179 178 178 175 174 193 197 192 193 195 194 188 194 200 202 197 196 208
228 267 233 202 185 189 199 169 182 214 232 269 254 232 251 251 254 227 203 193 182 187 185 183 189 189 190 191 183 178 181 198 202 196 198 197 192 191 198 202 199 198 199 208
205 250 277 237 226 166 174 207 193 167 256 263 256 271 291 245 264 251 173 171 193 195 191 191 192 189 187 191 203 192 187 207 215 203 190 189 190 190 189 193 190 189 195 198
176 255 270 281 23 241 176 158 131 167 208 253 269 253 244 233 232 230 222 216 217 203 193 191 189 190 188 190 216 195 192 215 220 194 186 177 187 187 179 172 177 179 188 187
161 209 282 252 204 206 173 183 181 185 198 203 260 264 231 214 211 211 216 212 204 200 193 190 190 186 177 150 148 166 190 203 179 169 164 154 158 161 160 165 171 173 176 178
166 152 250 248 249 228 205 201 178 191 228 211 233 267 276 235 216 205 212 210 201 196 193 184 177 168 167 164 191 184 181 157 156 145 138 146 144 140 149 162 173 167 178 188
148 150 313 324 312 292 227 212 199 194 192 203 218 261 306 356 254 208 206 206 195 186 183 176 167 175 188 192 210 214 225 178 148 131 125 123 129 142 157 171 176 168 173 178
137 188 207 225 236 206 239 243 218 197 220 232 234 254 280 287 274 264 229 210 200 190 188 185 184 199 201 204 206 202 234 167 138 131 128 137 157 159 166 170 170 169 173 179
140 218 241 264 270 243 242 244 226 220 222 227 246 249 258 248 238 237 222 204 194 196 196 197 196 209 208 212 219 207 208 158 135 134 141 174 172 150 146 159 164 154 175 195
162 213 247 275 270 255 265 255 237 234 234 240 256 265 264 254 231 232 222 203 203 211 211 209 206 202 204 209 208 204 206 210 168 154 170 173 145 140 147 165 154 147 197 210
183 173 204 263 289 304 267 240 221 220 219 214 238 251 253 251 232 221 221 209 207 216 218 214 212 210 208 205 196 202 202 207 188 176 175 169 154 143 157 166 143 183 225 207
178 171 194 248 330 237 249 243 214 221 241 231 244 258 241 234 241 241 221 203 211 215 216 220 217 213 206 192 189 190 181 187 183 173 173 166 151 156 139 133 172 231 227 221
191 173 190 202 232 269 292 277 212 211 261 245 244 258 267 271 3 294 241 206 208 210 212 212 206 195 183 182 176 163 168 174 168 178 191 188 180 179 179 198 262 269 249 260
72 171 184 198 219 242 263 283 275 131 284 284 245 246 235 147 233 259 241 202 208 202 192 186 168 156 166 182 159 149 172 178 188 196 201 195 186 183 203 223 244 258 243 263
76 203 211 219 234 260 271 295 90 162 265 299 250 225 211 213 225 226 204 203 195 185 170 150 151 169 186 170 148 161 187 219 222 193 186 192 193 197 211 222 235 237 257 304
184 186 208 196 220 254 271 111 193 244 281 286 266 243 227 229 219 190 191 188 166 161 153 143 144 159 177 151 149 176 227 248 223 175 171 186 197 206 186 172 239 240 202 230
206 199 197 202 225 257 225 227 248 259 270 271 257 253 217 211 218 211 207 202 181 162 160 138 142 137 85 134 156 188 238 237 184 142 147 161 177 179 166 181 200 234 231 233
252 224 214 254 264 269 266 265 276 269 264 266 255 244 214 216 216 218 208 202 192 170 161 143 137 148 194 261 149 208 226 217 162 159 157 156 161 159 163 205 200 207 222 233
231 202 224 255 274 292 280 263 271 284 283 279 278 249 210 190 212 214 206 201 195 196 174 151 159 177 211 219 240 236 208 178 172 169 163 161 168 172 183 260 245 236 238 233
212 204 212 243 250 251 272 278 278 281 284 279 272 275 237 189 196 195 196 201 186 183 168 155 162 180 219 234 253 251 206 175 181 180 183 187 181 185 193 236 319 306 271 286